Year,Month,Day,Hour,Minute,Value (Times are PST for temperature in C)
2017,09,03,00,00,19.40
2017,09,03,00,01,19.30
2017,09,03,00,02,19.30
2017,09,03,00,03,19.30
2017,09,03,00,04,19.30
2017,09,03,00,05,19.30
2017,09,03,00,06,19.30
2017,09,03,00,07,19.40
2017,09,03,00,08,19.50
2017,09,03,00,09,19.50
2017,09,03,00,10,19.60
2017,09,03,00,11,19.60
2017,09,03,00,12,19.70
2017,09,03,00,13,19.70
2017,09,03,00,14,19.70
2017,09,03,00,15,19.60
2017,09,03,00,16,19.60
2017,09,03,00,17,19.50
2017,09,03,00,18,19.40
2017,09,03,00,19,19.40
2017,09,03,00,20,19.30
2017,09,03,00,21,19.20
2017,09,03,00,22,19.20
2017,09,03,00,23,19.10
2017,09,03,00,24,19.10
2017,09,03,00,25,19.10
2017,09,03,00,26,19.10
2017,09,03,00,27,19.00
2017,09,03,00,28,19.00
2017,09,03,00,29,19.00
2017,09,03,00,30,19.00
2017,09,03,00,31,19.00
2017,09,03,00,32,19.10
2017,09,03,00,33,19.10
2017,09,03,00,34,19.10
2017,09,03,00,35,19.10
2017,09,03,00,36,19.20
2017,09,03,00,37,19.20
2017,09,03,00,38,19.30
2017,09,03,00,39,19.30
2017,09,03,00,40,19.30
2017,09,03,00,41,19.40
2017,09,03,00,42,19.50
2017,09,03,00,43,19.60
2017,09,03,00,44,19.70
2017,09,03,00,45,19.90
2017,09,03,00,46,20.00
2017,09,03,00,47,20.00
2017,09,03,00,48,20.10
2017,09,03,00,49,20.10
2017,09,03,00,50,20.10
2017,09,03,00,51,20.20
2017,09,03,00,52,20.20
2017,09,03,00,53,20.30
2017,09,03,00,54,20.40
2017,09,03,00,55,20.40
2017,09,03,00,56,20.50
2017,09,03,00,57,20.50
2017,09,03,00,58,20.50
2017,09,03,00,59,20.50
2017,09,03,01,00,20.50
2017,09,03,01,01,20.50
2017,09,03,01,02,20.50
2017,09,03,01,03,20.40
2017,09,03,01,04,20.40
2017,09,03,01,05,20.30
2017,09,03,01,06,20.20
2017,09,03,01,07,20.20
2017,09,03,01,08,20.10
2017,09,03,01,09,20.10
2017,09,03,01,10,20.10
2017,09,03,01,11,20.10
2017,09,03,01,12,20.10
2017,09,03,01,13,20.10
2017,09,03,01,14,20.10
2017,09,03,01,15,20.10
2017,09,03,01,16,20.20
2017,09,03,01,17,20.20
2017,09,03,01,18,20.20
2017,09,03,01,19,20.10
2017,09,03,01,20,20.10
2017,09,03,01,21,20.00
2017,09,03,01,22,19.80
2017,09,03,01,23,19.70
2017,09,03,01,24,19.50
2017,09,03,01,25,19.30
2017,09,03,01,26,19.20
2017,09,03,01,27,19.00
2017,09,03,01,28,18.90
2017,09,03,01,29,18.80
2017,09,03,01,30,18.80
2017,09,03,01,31,18.70
2017,09,03,01,32,18.70
2017,09,03,01,33,18.60
2017,09,03,01,34,18.60
2017,09,03,01,35,18.50
2017,09,03,01,36,18.50
2017,09,03,01,37,18.50
2017,09,03,01,38,18.40
2017,09,03,01,39,18.40
2017,09,03,01,40,18.40
2017,09,03,01,41,18.40
2017,09,03,01,42,18.50
2017,09,03,01,43,18.50
2017,09,03,01,44,18.50
2017,09,03,01,45,18.50
2017,09,03,01,46,18.50
2017,09,03,01,47,18.50
2017,09,03,01,48,18.40
2017,09,03,01,49,18.40
2017,09,03,01,50,18.40
2017,09,03,01,51,18.40
2017,09,03,01,52,18.40
2017,09,03,01,53,18.40
2017,09,03,01,54,18.50
2017,09,03,01,55,18.50
2017,09,03,01,56,18.60
2017,09,03,01,57,18.70
2017,09,03,01,58,18.70
2017,09,03,01,59,18.70
2017,09,03,02,00,18.60
2017,09,03,02,01,18.60
2017,09,03,02,02,18.60
2017,09,03,02,03,18.50
2017,09,03,02,04,18.50
2017,09,03,02,05,18.50
2017,09,03,02,06,18.50
2017,09,03,02,07,18.60
2017,09,03,02,08,18.60
2017,09,03,02,09,18.60
2017,09,03,02,10,18.60
2017,09,03,02,11,18.60
2017,09,03,02,12,18.60
2017,09,03,02,13,18.50
2017,09,03,02,14,18.50
2017,09,03,02,15,18.50
2017,09,03,02,16,18.50
2017,09,03,02,17,18.50
2017,09,03,02,18,18.50
2017,09,03,02,19,18.60
2017,09,03,02,20,18.60
2017,09,03,02,21,18.60
2017,09,03,02,22,18.60
2017,09,03,02,23,18.60
2017,09,03,02,24,18.60
2017,09,03,02,25,18.60
2017,09,03,02,26,18.60
2017,09,03,02,27,18.60
2017,09,03,02,28,18.70
2017,09,03,02,29,18.70
2017,09,03,02,30,18.80
2017,09,03,02,31,18.80
2017,09,03,02,32,18.80
2017,09,03,02,33,18.80
2017,09,03,02,34,18.80
2017,09,03,02,35,18.90
2017,09,03,02,36,18.90
2017,09,03,02,37,18.90
2017,09,03,02,38,18.90
2017,09,03,02,39,18.90
2017,09,03,02,40,18.90
2017,09,03,02,41,18.90
2017,09,03,02,42,18.90
2017,09,03,02,43,18.90
2017,09,03,02,44,18.90
2017,09,03,02,45,18.90
2017,09,03,02,46,18.80
2017,09,03,02,47,18.80
2017,09,03,02,48,18.80
2017,09,03,02,49,18.70
2017,09,03,02,50,18.70
2017,09,03,02,51,18.60
2017,09,03,02,52,18.60
2017,09,03,02,53,18.50
2017,09,03,02,54,18.50
2017,09,03,02,55,18.50
2017,09,03,02,56,18.50
2017,09,03,02,57,18.50
2017,09,03,02,58,18.40
2017,09,03,02,59,18.40
2017,09,03,03,00,18.40
2017,09,03,03,01,18.40
2017,09,03,03,02,18.40
2017,09,03,03,03,18.30
2017,09,03,03,04,18.30
2017,09,03,03,05,18.30
2017,09,03,03,06,18.30
2017,09,03,03,07,18.30
2017,09,03,03,08,18.40
2017,09,03,03,09,18.40
2017,09,03,03,10,18.30
2017,09,03,03,11,18.30
2017,09,03,03,12,18.30
2017,09,03,03,13,18.30
2017,09,03,03,14,18.20
2017,09,03,03,15,18.20
2017,09,03,03,16,18.10
2017,09,03,03,17,18.10
2017,09,03,03,18,18.00
2017,09,03,03,19,18.00
2017,09,03,03,20,18.00
2017,09,03,03,21,18.10
2017,09,03,03,22,18.20
2017,09,03,03,23,18.30
2017,09,03,03,24,18.40
2017,09,03,03,25,18.50
2017,09,03,03,26,18.70
2017,09,03,03,27,18.70
2017,09,03,03,28,18.80
2017,09,03,03,29,18.80
2017,09,03,03,30,18.80
2017,09,03,03,31,18.80
2017,09,03,03,32,18.80
2017,09,03,03,33,18.80
2017,09,03,03,34,18.80
2017,09,03,03,35,18.80
2017,09,03,03,36,18.80
2017,09,03,03,37,18.80
2017,09,03,03,38,18.70
2017,09,03,03,39,18.70
2017,09,03,03,40,18.70
2017,09,03,03,41,18.60
2017,09,03,03,42,18.50
2017,09,03,03,43,18.50
2017,09,03,03,44,18.40
2017,09,03,03,45,18.30
2017,09,03,03,46,18.30
2017,09,03,03,47,18.30
2017,09,03,03,48,18.40
2017,09,03,03,49,18.50
2017,09,03,03,50,18.50
2017,09,03,03,51,18.60
2017,09,03,03,52,18.70
2017,09,03,03,53,18.70
2017,09,03,03,54,18.70
2017,09,03,03,55,18.70
2017,09,03,03,56,18.70
2017,09,03,03,57,18.60
2017,09,03,03,58,18.50
2017,09,03,03,59,18.50
2017,09,03,04,00,18.40
2017,09,03,04,01,18.40
2017,09,03,04,02,18.30
2017,09,03,04,03,18.30
2017,09,03,04,04,18.20
2017,09,03,04,05,18.20
2017,09,03,04,06,18.20
2017,09,03,04,07,18.10
2017,09,03,04,08,18.10
2017,09,03,04,09,18.10
2017,09,03,04,10,18.00
2017,09,03,04,11,18.00
2017,09,03,04,12,18.00
2017,09,03,04,13,17.90
2017,09,03,04,14,17.90
2017,09,03,04,15,17.90
2017,09,03,04,16,17.90
2017,09,03,04,17,17.90
2017,09,03,04,18,17.80
2017,09,03,04,19,17.80
2017,09,03,04,20,17.80
2017,09,03,04,21,17.80
2017,09,03,04,22,17.80
2017,09,03,04,23,17.80
2017,09,03,04,24,17.80
2017,09,03,04,25,17.80
2017,09,03,04,26,17.80
2017,09,03,04,27,17.80
2017,09,03,04,28,17.80
2017,09,03,04,29,17.80
2017,09,03,04,30,17.80
2017,09,03,04,31,17.80
2017,09,03,04,32,17.80
2017,09,03,04,33,17.80
2017,09,03,04,34,17.80
2017,09,03,04,35,17.90
2017,09,03,04,36,17.90
2017,09,03,04,37,17.90
2017,09,03,04,38,17.90
2017,09,03,04,39,17.90
2017,09,03,04,40,17.90
2017,09,03,04,41,18.00
2017,09,03,04,42,18.00
2017,09,03,04,43,18.00
2017,09,03,04,44,18.00
2017,09,03,04,45,18.00
2017,09,03,04,46,18.00
2017,09,03,04,47,18.00
2017,09,03,04,48,18.00
2017,09,03,04,49,17.90
2017,09,03,04,50,17.90
2017,09,03,04,51,17.90
2017,09,03,04,52,17.80
2017,09,03,04,53,17.80
2017,09,03,04,54,17.80
2017,09,03,04,55,17.80
2017,09,03,04,56,17.80
2017,09,03,04,57,17.80
2017,09,03,04,58,17.80
2017,09,03,04,59,17.80
2017,09,03,05,00,17.80
2017,09,03,05,01,17.90
2017,09,03,05,02,17.90
2017,09,03,05,03,17.90
2017,09,03,05,04,17.80
2017,09,03,05,05,17.80
2017,09,03,05,06,17.80
2017,09,03,05,07,17.80
2017,09,03,05,08,17.70
2017,09,03,05,09,17.70
2017,09,03,05,10,17.60
2017,09,03,05,11,17.50
2017,09,03,05,12,17.50
2017,09,03,05,13,17.40
2017,09,03,05,14,17.40
2017,09,03,05,15,17.40
2017,09,03,05,16,17.30
2017,09,03,05,17,17.30
2017,09,03,05,18,17.30
2017,09,03,05,19,17.30
2017,09,03,05,20,17.30
2017,09,03,05,21,17.30
2017,09,03,05,22,17.30
2017,09,03,05,23,17.20
2017,09,03,05,24,17.20
2017,09,03,05,25,17.20
2017,09,03,05,26,17.10
2017,09,03,05,27,17.10
2017,09,03,05,28,17.10
2017,09,03,05,29,17.20
2017,09,03,05,30,17.20
2017,09,03,05,31,17.20
2017,09,03,05,32,17.20
2017,09,03,05,33,17.30
2017,09,03,05,34,17.30
2017,09,03,05,35,17.30
2017,09,03,05,36,17.30
2017,09,03,05,37,17.30
2017,09,03,05,38,17.40
2017,09,03,05,39,17.40
2017,09,03,05,40,17.40
2017,09,03,05,41,17.40
2017,09,03,05,42,17.40
2017,09,03,05,43,17.40
2017,09,03,05,44,17.40
2017,09,03,05,45,17.40
2017,09,03,05,46,17.40
2017,09,03,05,47,17.40
2017,09,03,05,48,17.30
2017,09,03,05,49,17.30
2017,09,03,05,50,17.30
2017,09,03,05,51,17.30
2017,09,03,05,52,17.30
2017,09,03,05,53,17.20
2017,09,03,05,54,17.20
2017,09,03,05,55,17.10
2017,09,03,05,56,17.10
2017,09,03,05,57,17.10
2017,09,03,05,58,17.00
2017,09,03,05,59,17.00
2017,09,03,06,00,16.90
2017,09,03,06,01,16.90
2017,09,03,06,02,16.90
2017,09,03,06,03,16.90
2017,09,03,06,04,16.90
2017,09,03,06,05,16.90
2017,09,03,06,06,16.90
2017,09,03,06,07,16.90
2017,09,03,06,08,16.90
2017,09,03,06,09,16.90
2017,09,03,06,10,16.90
2017,09,03,06,11,16.90
2017,09,03,06,12,16.90
2017,09,03,06,13,16.90
2017,09,03,06,14,16.90
2017,09,03,06,15,16.90
2017,09,03,06,16,16.90
2017,09,03,06,17,16.90
2017,09,03,06,18,17.00
2017,09,03,06,19,17.00
2017,09,03,06,20,17.00
2017,09,03,06,21,17.00
2017,09,03,06,22,16.90
2017,09,03,06,23,16.90
2017,09,03,06,24,16.80
2017,09,03,06,25,16.70
2017,09,03,06,26,16.60
2017,09,03,06,27,16.60
2017,09,03,06,28,16.50
2017,09,03,06,29,16.40
2017,09,03,06,30,16.40
2017,09,03,06,31,16.40
2017,09,03,06,32,16.40
2017,09,03,06,33,16.40
2017,09,03,06,34,16.40
2017,09,03,06,35,16.50
2017,09,03,06,36,16.50
2017,09,03,06,37,16.60
2017,09,03,06,38,16.60
2017,09,03,06,39,16.60
2017,09,03,06,40,16.60
2017,09,03,06,41,16.60
2017,09,03,06,42,16.60
2017,09,03,06,43,16.70
2017,09,03,06,44,16.70
2017,09,03,06,45,16.70
2017,09,03,06,46,16.70
2017,09,03,06,47,16.70
2017,09,03,06,48,16.70
2017,09,03,06,49,16.70
2017,09,03,06,50,16.70
2017,09,03,06,51,16.70
2017,09,03,06,52,16.70
2017,09,03,06,53,16.70
2017,09,03,06,54,16.70
2017,09,03,06,55,16.80
2017,09,03,06,56,16.80
2017,09,03,06,57,16.80
2017,09,03,06,58,16.80
2017,09,03,06,59,16.80
2017,09,03,07,00,16.80
2017,09,03,07,01,16.90
2017,09,03,07,02,16.90
2017,09,03,07,03,16.90
2017,09,03,07,04,17.00
2017,09,03,07,05,17.00
2017,09,03,07,06,17.00
2017,09,03,07,07,17.10
2017,09,03,07,08,17.10
2017,09,03,07,09,17.10
2017,09,03,07,10,17.20
2017,09,03,07,11,17.20
2017,09,03,07,12,17.20
2017,09,03,07,13,17.30
2017,09,03,07,14,17.30
2017,09,03,07,15,17.40
2017,09,03,07,16,17.40
2017,09,03,07,17,17.50
2017,09,03,07,18,17.60
2017,09,03,07,19,17.80
2017,09,03,07,20,18.10
2017,09,03,07,21,18.30
2017,09,03,07,22,18.40
2017,09,03,07,23,18.60
2017,09,03,07,24,18.70
2017,09,03,07,25,18.80
2017,09,03,07,26,18.90
2017,09,03,07,27,18.90
2017,09,03,07,28,19.00
2017,09,03,07,29,19.10
2017,09,03,07,30,19.10
2017,09,03,07,31,19.20
2017,09,03,07,32,19.20
2017,09,03,07,33,19.30
2017,09,03,07,34,19.30
2017,09,03,07,35,19.30
2017,09,03,07,36,19.30
2017,09,03,07,37,19.30
2017,09,03,07,38,19.20
2017,09,03,07,39,19.20
2017,09,03,07,40,19.20
2017,09,03,07,41,19.10
2017,09,03,07,42,19.10
2017,09,03,07,43,19.10
2017,09,03,07,44,19.10
2017,09,03,07,45,19.00
2017,09,03,07,46,19.00
2017,09,03,07,47,19.00
2017,09,03,07,48,19.00
2017,09,03,07,49,18.90
2017,09,03,07,50,18.90
2017,09,03,07,51,18.90
2017,09,03,07,52,18.90
2017,09,03,07,53,19.00
2017,09,03,07,54,19.00
2017,09,03,07,55,19.00
2017,09,03,07,56,19.00
2017,09,03,07,57,19.10
2017,09,03,07,58,19.10
2017,09,03,07,59,19.10
2017,09,03,08,00,19.20
2017,09,03,08,01,19.20
2017,09,03,08,02,19.20
2017,09,03,08,03,19.30
2017,09,03,08,04,19.30
2017,09,03,08,05,19.40
2017,09,03,08,06,19.40
2017,09,03,08,07,19.50
2017,09,03,08,08,19.60
2017,09,03,08,09,19.60
2017,09,03,08,10,19.70
2017,09,03,08,11,19.80
2017,09,03,08,12,19.80
2017,09,03,08,13,19.90
2017,09,03,08,14,20.00
2017,09,03,08,15,20.00
2017,09,03,08,16,20.10
2017,09,03,08,17,20.20
2017,09,03,08,18,20.30
2017,09,03,08,19,20.30
2017,09,03,08,20,20.30
2017,09,03,08,21,20.40
2017,09,03,08,22,20.40
2017,09,03,08,23,20.50
2017,09,03,08,24,20.50
2017,09,03,08,25,20.60
2017,09,03,08,26,20.60
2017,09,03,08,27,20.70
2017,09,03,08,28,20.80
2017,09,03,08,29,20.80
2017,09,03,08,30,20.90
2017,09,03,08,31,20.90
2017,09,03,08,32,21.00
2017,09,03,08,33,21.10
2017,09,03,08,34,21.10
2017,09,03,08,35,21.20
2017,09,03,08,36,21.20
2017,09,03,08,37,21.30
2017,09,03,08,38,21.30
2017,09,03,08,39,21.40
2017,09,03,08,40,21.40
2017,09,03,08,41,21.50
2017,09,03,08,42,21.60
2017,09,03,08,43,21.60
2017,09,03,08,44,21.70
2017,09,03,08,45,21.80
2017,09,03,08,46,21.80
2017,09,03,08,47,21.90
2017,09,03,08,48,21.90
2017,09,03,08,49,22.00
2017,09,03,08,50,22.10
2017,09,03,08,51,22.20
2017,09,03,08,52,22.40
2017,09,03,08,53,22.60
2017,09,03,08,54,22.80
2017,09,03,08,55,22.90
2017,09,03,08,56,23.10
2017,09,03,08,57,23.20
2017,09,03,08,58,23.20
2017,09,03,08,59,23.30
2017,09,03,09,00,23.30
2017,09,03,09,01,23.20
2017,09,03,09,02,23.20
2017,09,03,09,03,23.10
2017,09,03,09,04,23.10
2017,09,03,09,05,23.00
2017,09,03,09,06,23.00
2017,09,03,09,07,22.90
2017,09,03,09,08,22.90
2017,09,03,09,09,22.90
2017,09,03,09,10,22.90
2017,09,03,09,11,22.90
2017,09,03,09,12,22.90
2017,09,03,09,13,22.90
2017,09,03,09,14,22.80
2017,09,03,09,15,22.80
2017,09,03,09,16,22.80
2017,09,03,09,17,22.80
2017,09,03,09,18,22.80
2017,09,03,09,19,22.80
2017,09,03,09,20,22.80
2017,09,03,09,21,22.80
2017,09,03,09,22,22.90
2017,09,03,09,23,22.90
2017,09,03,09,24,22.90
2017,09,03,09,25,22.90
2017,09,03,09,26,22.90
2017,09,03,09,27,23.00
2017,09,03,09,28,23.00
2017,09,03,09,29,23.10
2017,09,03,09,30,23.10
2017,09,03,09,31,23.20
2017,09,03,09,32,23.20
2017,09,03,09,33,23.30
2017,09,03,09,34,23.30
2017,09,03,09,35,23.30
2017,09,03,09,36,23.30
2017,09,03,09,37,23.30
2017,09,03,09,38,23.30
2017,09,03,09,39,23.30
2017,09,03,09,40,23.30
2017,09,03,09,41,23.30
2017,09,03,09,42,23.40
2017,09,03,09,43,23.40
2017,09,03,09,44,23.40
2017,09,03,09,45,23.50
2017,09,03,09,46,23.70
2017,09,03,09,47,23.80
2017,09,03,09,48,23.90
2017,09,03,09,49,24.00
2017,09,03,09,50,24.20
2017,09,03,09,51,24.20
2017,09,03,09,52,24.30
2017,09,03,09,53,24.30
2017,09,03,09,54,24.30
2017,09,03,09,55,24.30
2017,09,03,09,56,24.40
2017,09,03,09,57,24.40
2017,09,03,09,58,24.40
2017,09,03,09,59,24.50
2017,09,03,10,00,24.50
2017,09,03,10,01,24.60
2017,09,03,10,02,24.60
2017,09,03,10,03,24.70
2017,09,03,10,04,24.80
2017,09,03,10,05,24.80
2017,09,03,10,06,24.90
2017,09,03,10,07,24.90
2017,09,03,10,08,24.90
2017,09,03,10,09,24.80
2017,09,03,10,10,24.80
2017,09,03,10,11,24.80
2017,09,03,10,12,24.80
2017,09,03,10,13,24.80
2017,09,03,10,14,24.80
2017,09,03,10,15,24.80
2017,09,03,10,16,24.70
2017,09,03,10,17,24.70
2017,09,03,10,18,24.60
2017,09,03,10,19,24.60
2017,09,03,10,20,24.60
2017,09,03,10,21,24.60
2017,09,03,10,22,24.80
2017,09,03,10,23,24.90
2017,09,03,10,24,25.00
2017,09,03,10,25,25.10
2017,09,03,10,26,25.20
2017,09,03,10,27,25.40
2017,09,03,10,28,25.50
2017,09,03,10,29,25.60
2017,09,03,10,30,25.70
2017,09,03,10,31,25.70
2017,09,03,10,32,25.70
2017,09,03,10,33,25.70
2017,09,03,10,34,25.70
2017,09,03,10,35,25.60
2017,09,03,10,36,25.60
2017,09,03,10,37,25.60
2017,09,03,10,38,25.60
2017,09,03,10,39,25.60
2017,09,03,10,40,25.70
2017,09,03,10,41,25.80
2017,09,03,10,42,25.90
2017,09,03,10,43,25.90
2017,09,03,10,44,25.80
2017,09,03,10,45,25.70
2017,09,03,10,46,25.70
2017,09,03,10,47,25.70
2017,09,03,10,48,25.70
2017,09,03,10,49,25.80
2017,09,03,10,50,25.90
2017,09,03,10,51,25.90
2017,09,03,10,52,25.90
2017,09,03,10,53,26.00
2017,09,03,10,54,26.00
2017,09,03,10,55,26.10
2017,09,03,10,56,26.10
2017,09,03,10,57,26.20
2017,09,03,10,58,26.20
2017,09,03,10,59,26.20
2017,09,03,11,00,26.20
2017,09,03,11,01,26.10
2017,09,03,11,02,26.10
2017,09,03,11,03,26.10
2017,09,03,11,04,26.20
2017,09,03,11,05,26.30
2017,09,03,11,06,26.50
2017,09,03,11,07,26.60
2017,09,03,11,08,26.70
2017,09,03,11,09,26.70
2017,09,03,11,10,26.70
2017,09,03,11,11,26.50
2017,09,03,11,12,26.40
2017,09,03,11,13,26.40
2017,09,03,11,14,26.50
2017,09,03,11,15,26.60
2017,09,03,11,16,26.60
2017,09,03,11,17,26.60
2017,09,03,11,18,26.50
2017,09,03,11,19,26.50
2017,09,03,11,20,26.40
2017,09,03,11,21,26.40
2017,09,03,11,22,26.30
2017,09,03,11,23,26.30
2017,09,03,11,24,26.30
2017,09,03,11,25,26.30
2017,09,03,11,26,26.20
2017,09,03,11,27,26.10
2017,09,03,11,28,26.00
2017,09,03,11,29,26.10
2017,09,03,11,30,26.10
2017,09,03,11,31,26.10
2017,09,03,11,32,26.00
2017,09,03,11,33,26.00
2017,09,03,11,34,26.00
2017,09,03,11,35,25.90
2017,09,03,11,36,25.90
2017,09,03,11,37,25.90
2017,09,03,11,38,25.90
2017,09,03,11,39,25.90
2017,09,03,11,40,25.90
2017,09,03,11,41,26.00
2017,09,03,11,42,26.10
2017,09,03,11,43,26.20
2017,09,03,11,44,26.30
2017,09,03,11,45,26.40
2017,09,03,11,46,26.40
2017,09,03,11,47,26.40
2017,09,03,11,48,26.40
2017,09,03,11,49,26.50
2017,09,03,11,50,26.50
2017,09,03,11,51,26.40
2017,09,03,11,52,26.50
2017,09,03,11,53,26.40
2017,09,03,11,54,26.50
2017,09,03,11,55,26.50
2017,09,03,11,56,26.40
2017,09,03,11,57,26.40
2017,09,03,11,58,26.30
2017,09,03,11,59,26.30
2017,09,03,12,00,26.20
2017,09,03,12,01,26.20
2017,09,03,12,02,26.30
2017,09,03,12,03,26.40
2017,09,03,12,04,26.50
2017,09,03,12,05,26.40
2017,09,03,12,06,26.50
2017,09,03,12,07,26.60
2017,09,03,12,08,26.60
2017,09,03,12,09,26.70
2017,09,03,12,10,26.70
2017,09,03,12,11,26.50
2017,09,03,12,12,26.50
2017,09,03,12,13,26.40
2017,09,03,12,14,26.40
2017,09,03,12,15,26.40
2017,09,03,12,16,26.40
2017,09,03,12,17,26.40
2017,09,03,12,18,26.50
2017,09,03,12,19,26.60
2017,09,03,12,20,26.60
2017,09,03,12,21,26.70
2017,09,03,12,22,26.80
2017,09,03,12,23,26.80
2017,09,03,12,24,26.80
2017,09,03,12,25,26.80
2017,09,03,12,26,26.90
2017,09,03,12,27,27.00
2017,09,03,12,28,27.10
2017,09,03,12,29,27.10
2017,09,03,12,30,27.10
2017,09,03,12,31,27.20
2017,09,03,12,32,27.30
2017,09,03,12,33,27.30
2017,09,03,12,34,27.30
2017,09,03,12,35,27.20
2017,09,03,12,36,27.20
2017,09,03,12,37,27.20
2017,09,03,12,38,27.20
2017,09,03,12,39,27.30
2017,09,03,12,40,27.40
2017,09,03,12,41,27.40
2017,09,03,12,42,27.50
2017,09,03,12,43,27.60
2017,09,03,12,44,27.70
2017,09,03,12,45,27.80
2017,09,03,12,46,27.80
2017,09,03,12,47,27.80
2017,09,03,12,48,27.80
2017,09,03,12,49,27.80
2017,09,03,12,50,27.80
2017,09,03,12,51,27.90
2017,09,03,12,52,28.10
2017,09,03,12,53,28.10
2017,09,03,12,54,28.00
2017,09,03,12,55,27.90
2017,09,03,12,56,27.90
2017,09,03,12,57,27.80
2017,09,03,12,58,27.70
2017,09,03,12,59,27.60
2017,09,03,13,00,27.50
2017,09,03,13,01,27.60
2017,09,03,13,02,27.60
2017,09,03,13,03,27.70
2017,09,03,13,04,27.80
2017,09,03,13,05,27.80
2017,09,03,13,06,27.80
2017,09,03,13,07,27.70
2017,09,03,13,08,27.70
2017,09,03,13,09,27.70
2017,09,03,13,10,27.80
2017,09,03,13,11,27.90
2017,09,03,13,12,28.00
2017,09,03,13,13,28.10
2017,09,03,13,14,28.20
2017,09,03,13,15,28.10
2017,09,03,13,16,28.10
2017,09,03,13,17,28.10
2017,09,03,13,18,28.10
2017,09,03,13,19,28.20
2017,09,03,13,20,28.20
2017,09,03,13,21,28.30
2017,09,03,13,22,28.40
2017,09,03,13,23,28.40
2017,09,03,13,24,28.30
2017,09,03,13,25,28.30
2017,09,03,13,26,28.30
2017,09,03,13,27,28.30
2017,09,03,13,28,28.30
2017,09,03,13,29,28.30
2017,09,03,13,30,28.30
2017,09,03,13,31,28.40
2017,09,03,13,32,28.50
2017,09,03,13,33,28.60
2017,09,03,13,34,28.60
2017,09,03,13,35,28.70
2017,09,03,13,36,28.80
2017,09,03,13,37,28.90
2017,09,03,13,38,29.10
2017,09,03,13,39,29.20
2017,09,03,13,40,29.20
2017,09,03,13,41,29.20
2017,09,03,13,42,29.10
2017,09,03,13,43,29.10
2017,09,03,13,44,29.00
2017,09,03,13,45,28.90
2017,09,03,13,46,28.80
2017,09,03,13,47,28.80
2017,09,03,13,48,28.70
2017,09,03,13,49,28.70
2017,09,03,13,50,28.60
2017,09,03,13,51,28.50
2017,09,03,13,52,28.40
2017,09,03,13,53,28.40
2017,09,03,13,54,28.40
2017,09,03,13,55,28.40
2017,09,03,13,56,28.50
2017,09,03,13,57,28.60
2017,09,03,13,58,28.60
2017,09,03,13,59,28.50
2017,09,03,14,00,28.50
2017,09,03,14,01,28.50
2017,09,03,14,02,28.50
2017,09,03,14,03,28.50
2017,09,03,14,04,28.40
2017,09,03,14,05,28.40
2017,09,03,14,06,28.40
2017,09,03,14,07,28.50
2017,09,03,14,08,28.60
2017,09,03,14,09,28.60
2017,09,03,14,10,28.60
2017,09,03,14,11,28.50
2017,09,03,14,12,28.60
2017,09,03,14,13,28.60
2017,09,03,14,14,28.60
2017,09,03,14,15,28.60
2017,09,03,14,16,28.70
2017,09,03,14,17,28.80
2017,09,03,14,18,28.80
2017,09,03,14,19,28.90
2017,09,03,14,20,28.90
2017,09,03,14,21,28.90
2017,09,03,14,22,28.90
2017,09,03,14,23,29.00
2017,09,03,14,24,29.10
2017,09,03,14,25,29.10
2017,09,03,14,26,29.20
2017,09,03,14,27,29.10
2017,09,03,14,28,29.00
2017,09,03,14,29,29.00
2017,09,03,14,30,29.10
2017,09,03,14,31,29.10
2017,09,03,14,32,29.10
2017,09,03,14,33,29.10
2017,09,03,14,34,29.20
2017,09,03,14,35,29.20
2017,09,03,14,36,29.10
2017,09,03,14,37,29.00
2017,09,03,14,38,28.90
2017,09,03,14,39,28.90
2017,09,03,14,40,28.90
2017,09,03,14,41,28.90
2017,09,03,14,42,28.90
2017,09,03,14,43,28.90
2017,09,03,14,44,29.00
2017,09,03,14,45,29.10
2017,09,03,14,46,29.10
2017,09,03,14,47,29.20
2017,09,03,14,48,29.30
2017,09,03,14,49,29.30
2017,09,03,14,50,29.30
2017,09,03,14,51,29.30
2017,09,03,14,52,29.30
2017,09,03,14,53,29.30
2017,09,03,14,54,29.30
2017,09,03,14,55,29.40
2017,09,03,14,56,29.40
2017,09,03,14,57,29.50
2017,09,03,14,58,29.50
2017,09,03,14,59,29.60
2017,09,03,15,00,29.60
2017,09,03,15,01,29.70
2017,09,03,15,02,29.80
2017,09,03,15,03,29.80
2017,09,03,15,04,29.90
2017,09,03,15,05,29.90
2017,09,03,15,06,29.80
2017,09,03,15,07,29.80
2017,09,03,15,08,29.70
2017,09,03,15,09,29.70
2017,09,03,15,10,29.70
2017,09,03,15,11,29.80
2017,09,03,15,12,29.80
2017,09,03,15,13,29.90
2017,09,03,15,14,29.90
2017,09,03,15,15,29.80
2017,09,03,15,16,29.80
2017,09,03,15,17,29.70
2017,09,03,15,18,29.70
2017,09,03,15,19,29.70
2017,09,03,15,20,29.60
2017,09,03,15,21,29.60
2017,09,03,15,22,29.70
2017,09,03,15,23,29.70
2017,09,03,15,24,29.80
2017,09,03,15,25,29.90
2017,09,03,15,26,29.90
2017,09,03,15,27,30.00
2017,09,03,15,28,30.10
2017,09,03,15,29,30.10
2017,09,03,15,30,30.10
2017,09,03,15,31,30.10
2017,09,03,15,32,30.10
2017,09,03,15,33,30.10
2017,09,03,15,34,30.10
2017,09,03,15,35,30.10
2017,09,03,15,36,30.10
2017,09,03,15,37,30.10
2017,09,03,15,38,30.10
2017,09,03,15,39,30.10
2017,09,03,15,40,30.10
2017,09,03,15,41,30.10
2017,09,03,15,42,30.10
2017,09,03,15,43,30.10
2017,09,03,15,44,30.10
2017,09,03,15,45,30.10
2017,09,03,15,46,30.10
2017,09,03,15,47,30.00
2017,09,03,15,48,30.00
2017,09,03,15,49,30.00
2017,09,03,15,50,30.00
2017,09,03,15,51,30.00
2017,09,03,15,52,30.00
2017,09,03,15,53,30.00
2017,09,03,15,54,30.00
2017,09,03,15,55,30.00
2017,09,03,15,56,29.90
2017,09,03,15,57,29.90
2017,09,03,15,58,30.00
2017,09,03,15,59,30.10
2017,09,03,16,00,30.10
2017,09,03,16,01,30.10
2017,09,03,16,02,30.10
2017,09,03,16,03,30.10
2017,09,03,16,04,30.10
2017,09,03,16,05,30.10
2017,09,03,16,06,30.20
2017,09,03,16,07,30.20
2017,09,03,16,08,30.20
2017,09,03,16,09,30.20
2017,09,03,16,10,30.20
2017,09,03,16,11,30.20
2017,09,03,16,12,30.20
2017,09,03,16,13,30.20
2017,09,03,16,14,30.20
2017,09,03,16,15,30.20
2017,09,03,16,16,30.20
2017,09,03,16,17,30.20
2017,09,03,16,18,30.30
2017,09,03,16,19,30.40
2017,09,03,16,20,30.30
2017,09,03,16,21,30.40
2017,09,03,16,22,30.30
2017,09,03,16,23,30.30
2017,09,03,16,24,30.30
2017,09,03,16,25,30.30
2017,09,03,16,26,30.40
2017,09,03,16,27,30.40
2017,09,03,16,28,30.40
2017,09,03,16,29,30.40
2017,09,03,16,30,30.40
2017,09,03,16,31,30.50
2017,09,03,16,32,30.40
2017,09,03,16,33,30.50
2017,09,03,16,34,30.50
2017,09,03,16,35,30.50
2017,09,03,16,36,30.50
2017,09,03,16,37,30.50
2017,09,03,16,38,30.50
2017,09,03,16,39,30.50
2017,09,03,16,40,30.50
2017,09,03,16,41,30.60
2017,09,03,16,42,30.60
2017,09,03,16,43,30.60
2017,09,03,16,44,30.70
2017,09,03,16,45,30.70
2017,09,03,16,46,30.80
2017,09,03,16,47,30.80
2017,09,03,16,48,30.80
2017,09,03,16,49,30.80
2017,09,03,16,50,30.90
2017,09,03,16,51,30.90
2017,09,03,16,52,31.00
2017,09,03,16,53,31.00
2017,09,03,16,54,31.00
2017,09,03,16,55,31.00
2017,09,03,16,56,31.00
2017,09,03,16,57,31.00
2017,09,03,16,58,31.10
2017,09,03,16,59,31.10
2017,09,03,17,00,31.10
2017,09,03,17,01,31.20
2017,09,03,17,02,31.20
2017,09,03,17,03,31.30
2017,09,03,17,04,31.40
2017,09,03,17,05,31.40
2017,09,03,17,06,31.40
2017,09,03,17,07,31.50
2017,09,03,17,08,31.60
2017,09,03,17,09,31.60
2017,09,03,17,10,31.70
2017,09,03,17,11,31.80
2017,09,03,17,12,31.90
2017,09,03,17,13,31.90
2017,09,03,17,14,32.00
2017,09,03,17,15,32.00
2017,09,03,17,16,32.00
2017,09,03,17,17,32.10
2017,09,03,17,18,32.10
2017,09,03,17,19,32.10